This demonstration page uses our WeatherBlox Daily Observations layout. Learn more.

41.55636, -103.73856

Hourly Observations for May 23, 2019

Temp ( °F °C ) Dew Point ( °F °C ) Humidity (%) Winds ( mph kmh ) Pressure ( in mb ) Visibility ( mi km ) Precip ( " mm )
12:59 am 00:59 undefined 40 4.2 33 0.7 78 78 NW 13 20 30.01 1016 10 16.0934 0 0
1:58 am 01:58 undefined 37 2.7 33 0.4 85 85 WNW 12 19 30.06 1018 10 16.0934 0 0
2:58 am 02:58 undefined 35 1.4 31 -0.3 89 89 NW 13 20 30.09 1019 10 16.0934 0 0
3:58 am 03:58 undefined 35 1.5 32 -0.1 89 89 NNW 18 30 30.1 1019 10 16.0934 0 0
4:58 am 04:58 undefined 35 1.6 32 -0.1 89 89 NNW 20 31 30.1 1019 10 16.0934 0 0
5:58 am 05:58 undefined 34 0.9 31 -0.5 90 90 NNW 12 19 30.13 1020 10 16.0934 0 0
6:58 am 06:58 undefined 34 1.3 32 -0.1 91 91 NNW 13 20 30.12 1020 10 16.0934 0 0
7:58 am 07:58 undefined 33 0.5 29 -1.5 87 87 WNW 7 11 30.15 1021 10 16.0934 0 0
9:58 am 09:58 undefined 37 2.5 31 -0.4 81 81 N 9 15 30.14 1021 10 16.0934 0 0
10:58 am 10:58 undefined 36 2.1 31 -0.5 83 83 NNW 9 15 30.14 1021 10 16.0934 0 0
11:58 am 11:58 undefined 35 1.6 31 -0.4 87 87 NNW 8 13 30.15 1021 10 16.0934 0 0
12:58 pm 12:58 undefined 35 1.4 31 -0.3 89 89 NW 5 7 30.16 1022 10 16.0934 0 0
1:58 pm 13:58 undefined 38 3.3 33 0.7 83 83 N 3 6 30.17 1022 10 16.0934 0 0
2:58 pm 14:58 undefined 39 4.1 35 1.5 83 83 Calm 30.17 1022 10 16.0934 0 0
3:58 pm 15:58 undefined 41 5.2 37 2.5 83 83 Calm 30.16 1022 10 16.0934 0 0
4:58 pm 16:58 undefined 44 6.6 37 2.9 77 77 SE 7 11 30.13 1020 10 16.0934 0 0
5:58 pm 17:58 undefined 48 8.7 38 3.3 69 69 SSE 16 26 30.09 1019 10 16.0934 0 0
6:58 pm 18:58 undefined 48 9 36 2.4 64 64 SSE 18 30 30.07 1018 10 16.0934 0 0
7:58 pm 19:58 undefined 48 9.1 36 2.4 63 63 SSE 17 28 30.04 1017 10 16.0934 0 0
8:58 pm 20:58 undefined 50 10.2 36 2.1 57 57 SSE 21 33 30 1016 10 16.0934 0 0
9:58 pm 21:58 undefined 52 10.9 38 3.5 61 61 SSE 23 37 29.92 1013 10 16.0934 0 0
10:58 pm 22:58 undefined 49 9.2 39 4 70 70 SSE 21 33 29.92 1013 10 16.0934 0 0
11:58 pm 23:58 undefined 44 6.7 39 4.1 84 84 S 21 33 29.96 1015 10 16.0934 0 0

Powered by AerisWeather